Change the Weather History Date:

Saturday, June 1, 2013

  Actual Average Record
Temperature  
Mean Temperature 66 °F 61 °F  
Max Temperature 79 °F 69 °F 90 °F (1960)
Min Temperature 53 °F 52 °F 47 °F (1955)
Degree Days  
Heating Degree Days 0 5  
Month to date heating degree days 0 5  
Since 1 June heating degree days 0 5  
Since 1 July heating degree days 2371 2775  
Cooling Degree Days 1 0  
Month to date cooling degree days 1 0  
Year to date cooling degree days 42 16  
Since 1 June cooling degree days 1 0  
Growing Degree Days 15 (Base 50)    
Moisture  
Dew Point 54 °F    
Average Humidity 70    
Maximum Humidity 100    
Minimum Humidity 40    
Precipitation  
Precipitation 0.00 in 0.01 in 0.14 in (2011)
Month to date precipitation 0.00 0.01  
Year to date precipitation 2.65 13.05  
Since 1 July precipitation 13.64 20.64  
Sea Level Pressure  
Sea Level Pressure 29.88 in    
Wind  
Wind Speed 7 mph (WNW)    
Max Wind Speed 18 mph    
Max Gust Speed 21 mph    
Visibility 10 miles    
Events      
T = Trace of Precipitation, MM = Missing Value Source: NWS Daily Summary

Daily Weather History Graph

Daily Weather History Graph

Search for Another Location

Airport or City:

Trip Planner

Search our weather history database for the weather conditions in past years. The results will help you decide how hot, cold, wet, or windy it might be!

Date:

Astronomy

Jun. 01, 2013 Rise Set
Actual Time 5:48 AM PDT 8:25 PM PDT
Civil Twilight 5:18 AM PDT 8:56 PM PDT
Nautical Twilight 4:39 AM PDT 9:34 PM PDT
Astronomical Twilight 3:57 AM PDT 10:17 PM PDT
Moon 1:40 AM PDT (6/1) 2:06 PM PDT (6/1)
Length of Visible Light 15h 37m
Length of Day
14h 36m
Last Quarter, 40% of the Moon is Illuminated
Jun 1
Last Quarter
Jun 8
New
Jun 16
First Quarter
Jun 23
Full
Jun 29
Last Quarter

Hourly Weather History & Observations

Time (PDT) Temp. Dew Point Humidity Pressure Visibility Wind Dir Wind Speed Gust Speed Precip Events Conditions
12:53 AM 57.0 °F 55.0 °F 93% 29.96 in 10.0 mi Calm Calm - N/A   Clear
1:53 AM 55.0 °F 55.0 °F 100% 29.96 in 10.0 mi North 3.5 mph - N/A   Clear
2:53 AM 54.0 °F 54.0 °F 100% 29.94 in 10.0 mi Calm Calm - N/A   Clear
3:53 AM 54.0 °F 54.0 °F 100% 29.93 in 10.0 mi Calm Calm - N/A   Clear
4:53 AM 53.1 °F 53.1 °F 100% 29.92 in 10.0 mi Calm Calm - N/A   Clear
5:53 AM 54.0 °F 54.0 °F 100% 29.93 in 10.0 mi NNW 3.5 mph - N/A   Partly Cloudy
6:53 AM 57.0 °F 57.0 °F 100% 29.93 in 10.0 mi Calm Calm - N/A   Partly Cloudy
7:53 AM 61.0 °F 57.0 °F 87% 29.93 in 8.0 mi Calm Calm - N/A   Clear
8:53 AM 63.0 °F 57.9 °F 84% 29.94 in 9.0 mi WSW 4.6 mph - N/A   Partly Cloudy
9:53 AM 64.0 °F 57.0 °F 78% 29.93 in 9.0 mi SW 5.8 mph - N/A   Partly Cloudy
10:53 AM 66.9 °F 54.0 °F 63% 29.91 in 10.0 mi SSW 5.8 mph - N/A   Partly Cloudy
11:53 AM 73.0 °F 50.0 °F 44% 29.90 in 10.0 mi West 9.2 mph - N/A   Partly Cloudy
12:53 PM 75.9 °F 52.0 °F 43% 29.89 in 10.0 mi WNW 12.7 mph - N/A   Partly Cloudy
1:53 PM 77.0 °F 51.1 °F 40% 29.88 in 10.0 mi WNW 11.5 mph - N/A   Partly Cloudy
2:53 PM 77.0 °F 52.0 °F 42% 29.86 in 10.0 mi WNW 18.4 mph - N/A   Scattered Clouds
3:53 PM 73.9 °F 53.1 °F 48% 29.84 in 10.0 mi WNW 15.0 mph - N/A   Mostly Cloudy
4:53 PM 71.1 °F 53.1 °F 53% 29.82 in 10.0 mi WNW 16.1 mph - N/A   Mostly Cloudy
5:53 PM 70.0 °F 54.0 °F 57% 29.81 in 10.0 mi WNW 13.8 mph - N/A   Mostly Cloudy
6:53 PM 69.1 °F 53.1 °F 57% 29.80 in 10.0 mi West 12.7 mph - N/A   Mostly Cloudy
7:53 PM 66.0 °F 51.1 °F 59% 29.80 in 10.0 mi West 9.2 mph - N/A   Mostly Cloudy
8:53 PM 64.0 °F 55.0 °F 73% 29.81 in 10.0 mi West 11.5 mph - N/A   Scattered Clouds
9:53 PM 62.1 °F 55.0 °F 78% 29.82 in 10.0 mi West 10.4 mph - N/A   Partly Cloudy
10:53 PM 59.0 °F 54.0 °F 83% 29.83 in 10.0 mi WNW 6.9 mph - N/A   Clear
11:53 PM 57.9 °F 54.0 °F 87% 29.82 in 10.0 mi West 3.5 mph - N/A   Clear